User: anonymous   Login
Location: Birkenwerder
(52.6919°N, 13.2774°E)
Time: 11:52:47
(UTC+00:00)
Language:

Cosmos 1570 Rocket - Orbit

View from above orbital plane
View from above orbital plane
View from above satellite
View from above satellite

Ground track
Ground track

The orbit data is extracted from the following two-line orbital elements,

1 15032U 84056B   20226.90634497 +.00000007 +00000-0 +11541-4 0  9991
2 15032 074.0710 126.9463 0017372 354.3846 005.7108 14.34806997892119
Epoch (UTC): 13 August 2020 21:45:08
Eccentricity: 0.0017372
inclination: 74.0710°
perigee height: 763 km
apogee height: 788 km
right ascension of ascending node: 126.9463°
argument of perigee: 354.3846°
revolutions per day: 14.34806997
mean anomaly at epoch: 5.7108°
orbit number at epoch: 89211

The dashed part of the orbit path shows where the satellite is in the earth's shadow,  

DLR